FW6496 Weather Reports


Display with metric or nautical units.
time (UTC)temp
F
wind
direction
speed
MPH
gust
MPH
rain 1hr
in
rain 24hr
in
rain mn
in
humidity
%
barometer
mb
20260906111620 71 78 2.0 5.0 0.00 0.72 0.01 97 1011.2
20260906111053 71 78 1.0 5.0 0.00 0.72 0.01 98 1011.2
20260906110553 71 80 2.0 4.0 0.00 0.72 0.01 98 1011.0
20260906110107 71 80 2.0 4.0 0.00 0.72 0.01 98 1011.0
20260906105554 71 80 2.0 4.0 0.00 0.72 0.01 98 1011.0
20260906105050 71 80 1.0 4.0 0.00 0.72 0.01 97 1010.9
20260906104607 71 80 0.0 6.0 0.00 0.72 0.01 97 1010.9
20260906104051 71 80 1.0 7.0 0.00 0.72 0.01 97 1010.8
20260906103553 70 84 2.0 7.0 0.00 0.72 0.01 97 1010.9
20260906103105 70 64 2.0 8.0 0.00 0.72 0.01 97 1010.9
20260906102551 70 65 3.0 8.0 0.00 0.72 0.01 97 1010.8
20260906102053 70 42 2.0 6.0 0.00 0.72 0.01 97 1010.7
20260906101605 70 53 2.0 5.0 0.00 0.72 0.01 97 1010.7
20260906101053 70 53 1.0 5.0 0.00 0.72 0.01 97 1010.7
20260906100554 70 53 1.0 4.0 0.01 0.72 0.01 97 1010.6
20260906100109 70 60 2.0 6.0 0.01 0.72 0.01 97 1010.6
20260906095556 70 60 3.0 6.0 0.01 0.72 0.01 97 1010.6
20260906095054 70 101 2.0 4.0 0.01 0.72 0.01 97 1010.6
20260906094601 70 140 2.0 4.0 0.01 0.72 0.01 97 1010.7
20260906094054 70 144 0.0 5.0 0.01 0.72 0.01 97 1010.6
20260906093553 70 0 1.0 5.0 0.01 0.72 0.01 97 1010.4
20260906093107 70 144 2.0 5.0 0.01 0.72 0.01 97 1010.4
20260906092552 70 161 2.0 4.0 0.01 0.72 0.01 97 1010.3
20260906092054 70 173 0.0 3.0 0.01 0.72 0.01 97 1010.3
20260906091607 70 0 0.0 3.0 0.01 0.72 0.01 97 1010.2
20260906091053 70 174 1.0 2.0 0.01 0.72 0.01 97 1010.1
20260906090554 70 0 1.0 2.0 0.00 0.71 0.00 97 1010.0
20260906090104 70 174 1.0 2.0 0.00 0.71 0.00 97 1010.0
20260906085556 70 0 0.0 2.0 0.00 0.71 0.00 97 1010.0
20260906085052 70 0 0.0 2.0 0.00 0.71 0.00 97 1010.0
20260906084608 70 174 0.0 2.0 0.00 0.71 0.00 97 1009.9
20260906084052 70 174 0.0 3.0 0.00 0.71 0.00 97 1009.9
20260906083557 70 174 0.0 3.0 0.00 0.71 0.00 97 1010.0
20260906083106 70 0 1.0 3.0 0.00 0.71 0.00 97 1010.0
20260906082553 70 0 0.0 0.0 0.00 0.71 0.00 97 1010.0
20260906082053 70 0 0.0 0.0 0.00 0.71 0.00 97 1010.0
20260906081606 70 0 0.0 0.0 0.00 0.71 0.00 97 1009.9
20260906081057 70 0 0.0 0.0 0.00 0.71 0.00 97 1009.9
20260906080556 70 0 0.0 1.0 0.00 0.71 0.00 97 1009.9
20260906080107 70 0 0.0 1.0 0.00 0.71 0.00 97 1009.9
20260906075554 70 174 0.0 3.0 0.00 0.71 0.00 97 1009.9
20260906075053 70 0 0.0 3.0 0.00 0.71 0.00 97 1009.8
20260906074606 70 174 0.0 4.0 0.00 0.71 0.00 97 1009.8
20260906074052 70 0 1.0 5.0 0.00 0.71 0.00 97 1009.8
20260906073553 70 174 2.0 5.0 0.00 0.71 0.00 97 1010.0
20260906073104 70 171 0.0 4.0 0.00 0.71 0.00 97 1010.0
20260906072553 70 171 1.0 4.0 0.00 0.71 0.00 97 1010.1
20260906072055 70 171 0.0 2.0 0.00 0.71 0.00 97 1010.2
20260906071608 70 171 0.0 2.0 0.00 0.71 0.00 97 1010.3
20260906071053 70 0 1.0 2.0 0.00 0.71 0.00 97 1010.3
20260906070556 70 0 0.0 2.0 0.00 0.71 0.00 97 1010.2
20260906070107 70 0 0.0 3.0 0.00 0.71 0.00 97 1010.1
20260906065553 70 171 1.0 4.0 0.00 0.71 0.00 97 1010.1
20260906065052 70 171 2.0 6.0 0.00 0.71 0.00 97 1010.1
20260906064604 70 171 2.0 6.0 0.00 0.71 0.00 97 1010.2
20260906064053 70 171 4.0 6.0 0.00 0.71 0.00 97 1010.2
20260906063552 71 0 0.0 0.0 0.00 0.71 0.00 97 1010.2
20260906063107 71 0 0.0 0.0 0.00 0.71 0.00 97 1010.0
20260906062552 70 0 0.0 0.0 0.00 0.71 0.00 97 1010.1
20260906062056 71 0 0.0 0.0 0.00 0.71 0.00 97 1010.1
20260906061610 71 0 0.0 0.0 0.00 0.71 0.00 97 1010.2
20260906061053 71 0 0.0 0.0 0.00 0.71 0.00 97 1010.1
20260906060553 71 0 0.0 0.0 0.00 0.71 0.00 97 1010.1
20260906060107 71 0 0.0 0.0 0.00 0.71 0.00 97 1010.2
20260906055553 71 0 0.0 0.0 0.00 0.71 0.00 97 1010.3
20260906055053 71 0 0.0 0.0 0.00 0.71 0.00 97 1010.2
20260906054608 71 0 0.0 0.0 0.00 0.71 0.00 97 1010.1
20260906054053 71 0 0.0 0.0 0.00 0.71 0.00 97 1010.2
20260906053553 71 0 0.0 0.0 0.00 0.71 0.00 97 1010.2
20260906053105 71 0 0.0 0.0 0.00 0.71 0.00 97 1010.2
20260906052552 71 0 0.0 0.0 0.00 0.71 0.00 97 1010.3
20260906052053 71 0 0.0 0.0 0.00 0.71 0.00 97 1010.5
20260906051614 71 0 0.0 0.0 0.00 0.71 0.00 97 1010.6
20260906051052 71 0 0.0 0.0 0.00 0.71 0.00 97 1010.7
20260906050553 71 0 0.0 0.0 0.00 0.71 0.00 97 1010.9
20260906050111 71 0 0.0 0.0 0.00 0.71 0.00 97 1010.8
20260906045553 71 0 0.0 0.0 0.00 0.71 0.00 97 1010.7
20260906045055 71 0 0.0 0.0 0.00 0.71 0.00 97 1010.8
20260906044610 71 0 0.0 0.0 0.00 0.71 0.00 97 1010.9
20260906044052 71 0 0.0 0.0 0.00 0.71 0.00 96 1010.9
20260906043552 71 0 0.0 0.0 0.00 0.71 0.00 97 1011.0
20260906043104 71 0 0.0 0.0 0.00 0.71 0.00 96 1011.0
20260906042553 71 0 0.0 0.0 0.00 0.71 0.00 96 1011.0
20260906042052 71 0 0.0 0.0 0.00 0.71 0.00 97 1011.0
20260906041608 71 0 0.0 0.0 0.00 0.71 0.00 96 1011.1
20260906041053 71 0 0.0 0.0 0.00 0.71 0.00 96 1011.2
20260906040552 71 0 0.0 0.0 0.00 0.71 0.00 96 1011.0
20260906040140 71 0 0.0 0.0 0.00 0.71 0.00 96 1011.1
20260906035551 71 0 0.0 0.0 0.00 0.71 0.71 96 1011.0
20260906035053 71 0 0.0 0.0 0.00 0.71 0.71 97 1011.0
20260906034620 71 0 0.0 0.0 0.00 0.71 0.71 97 1011.0
20260906034052 71 0 0.0 0.0 0.00 0.71 0.71 97 1011.0
20260906033552 71 0 0.0 0.0 0.00 0.71 0.71 97 1011.1
20260906033109 71 0 0.0 0.0 0.00 0.71 0.71 97 1011.0
20260906032552 71 0 0.0 0.0 0.00 0.71 0.71 96 1011.0
20260906032052 71 0 0.0 0.0 0.00 0.71 0.71 97 1011.0
20260906031607 71 0 0.0 0.0 0.00 0.71 0.71 97 1011.1
20260906031052 71 0 0.0 0.0 0.00 0.71 0.71 97 1011.2
20260906030553 71 0 0.0 0.0 0.00 0.71 0.71 97 1011.1
20260906030108 71 0 0.0 0.0 0.00 0.71 0.71 97 1011.2
20260906025553 71 0 0.0 0.0 0.00 0.71 0.71 97 1011.2
20260906025052 71 0 0.0 0.0 0.00 0.71 0.71 96 1011.3
20260906024615 71 0 0.0 0.0 0.00 0.71 0.71 96 1011.3
20260906024053 71 0 0.0 0.0 0.00 0.71 0.71 96 1011.4
20260906023556 71 0 0.0 0.0 0.00 0.71 0.71 96 1011.3
20260906023107 71 0 0.0 0.0 0.00 0.71 0.71 96 1011.3
20260906022552 71 0 0.0 0.0 0.00 0.71 0.71 96 1011.3
20260906022052 71 0 0.0 0.0 0.00 0.71 0.71 96 1011.4
20260906021605 71 0 0.0 0.0 0.00 0.71 0.71 96 1011.3
20260906021054 71 0 0.0 0.0 0.00 0.71 0.71 96 1011.2
20260906020553 71 0 0.0 0.0 0.00 0.71 0.71 96 1011.1
20260906020113 71 0 0.0 0.0 0.00 0.71 0.71 96 1011.1
20260906015552 71 0 0.0 0.0 0.00 0.71 0.71 96 1011.0
20260906015053 71 0 0.0 0.0 0.00 0.71 0.71 96 1011.1
20260906014608 71 0 0.0 0.0 0.00 0.71 0.71 96 1011.0
20260906014052 71 0 0.0 0.0 0.00 0.71 0.71 96 1011.0
20260906013552 71 0 0.0 0.0 0.00 0.71 0.71 96 1011.0
20260906013122 71 0 0.0 0.0 0.00 0.71 0.71 96 1010.8
20260906012553 71 0 0.0 0.0 0.00 0.71 0.71 96 1010.9
20260906012054 71 0 0.0 0.0 0.00 0.71 0.71 96 1010.9
20260906011605 71 0 0.0 0.0 0.00 0.71 0.71 96 1011.0
20260906011055 71 0 0.0 0.0 0.00 0.71 0.71 96 1011.1
20260906010552 71 0 0.0 2.0 0.00 0.71 0.71 96 1011.3
20260906010107 71 0 0.0 3.0 0.00 0.71 0.71 96 1011.2
20260906005554 71 247 1.0 3.0 0.00 0.71 0.71 96 1011.0
20260906005052 71 0 0.0 4.0 0.00 0.71 0.71 96 1011.0
20260906004604 71 246 2.0 7.0 0.00 0.71 0.71 96 1011.0
20260906004052 72 240 3.0 7.0 0.00 0.71 0.71 96 1011.0
20260906003553 72 269 2.0 8.0 0.00 0.71 0.71 96 1011.1
20260906003104 72 257 3.0 8.0 0.00 0.71 0.71 96 1011.0
20260906002556 72 232 4.0 9.0 0.00 0.71 0.71 96 1010.9
20260906002053 73 223 3.0 9.0 0.00 0.71 0.71 96 1010.8
20260906001610 73 193 4.0 9.0 0.00 0.71 0.71 96 1010.7
20260906001052 73 160 2.0 5.0 0.00 0.71 0.71 96 1010.2
20260906000555 73 160 1.0 4.0 0.00 0.71 0.71 96 1010.0
20260906000108 73 160 0.0 4.0 0.00 0.71 0.71 96 1009.9
20260905235554 73 0 0.0 4.0 0.00 0.71 0.71 96 1009.8
20260905235053 73 0 0.0 4.0 0.00 0.71 0.71 96 1009.8
20260905234603 73 91 1.0 4.0 0.00 0.71 0.71 96 1009.7
20260905234053 73 91 2.0 4.0 0.00 0.71 0.71 96 1009.6
20260905233552 73 0 0.0 0.0 0.00 0.71 0.71 96 1009.5
20260905233104 73 0 0.0 2.0 0.00 0.71 0.71 96 1009.6
20260905232552 73 0 0.0 2.0 0.00 0.71 0.71 96 1009.6
20260905232053 73 93 0.0 2.0 0.00 0.71 0.71 96 1009.9
20260905231611 73 0 0.0 2.0 0.00 0.71 0.71 95 1009.8
20260905231053 73 0 0.0 4.0 0.01 0.71 0.71 96 1009.7
20260905230552 73 93 2.0 4.0 0.01 0.71 0.71 96 1009.4
20260905230109 73 0 0.0 3.0 0.02 0.71 0.71 96 1009.5
20260905225553 73 89 0.0 3.0 0.02 0.71 0.71 96 1009.4
20260905225053 73 89 1.0 3.0 0.03 0.71 0.71 96 1009.4
20260905224619 73 88 2.0 3.0 0.03 0.71 0.71 95 1009.2
20260905224052 72 86 2.0 3.0 0.04 0.71 0.71 95 1009.0
20260905223552 72 0 0.0 0.0 0.04 0.71 0.71 95 1009.0
20260905223118 72 0 0.0 2.0 0.04 0.71 0.71 94 1008.8
20260905222553 72 0 0.0 4.0 0.04 0.71 0.71 94 1008.6
20260905222052 72 0 1.0 4.0 0.04 0.71 0.71 94 1008.3
20260905221606 72 302 2.0 4.0 0.04 0.71 0.71 94 1008.3
20260905221053 72 0 2.0 8.0 0.03 0.70 0.70 94 1008.1
20260905220556 72 302 1.0 8.0 0.06 0.70 0.70 93 1008.5
20260905220113 71 300 3.0 7.0 0.09 0.69 0.69 93 1009.2
20260905215553 71 15 1.0 7.0 0.14 0.69 0.69 92 1009.3
20260905215055 71 19 3.0 9.0 0.26 0.68 0.68 92 1009.3
20260905214605 71 15 4.0 10.0 0.39 0.68 0.68 92 1009.4
20260905214053 71 17 4.0 10.0 0.60 0.67 0.67 92 1009.6
20260905213554 71 40 4.0 10.0 0.67 0.67 0.67 92 1009.2
20260905213106 71 113 2.0 6.0 0.67 0.67 0.67 91 1008.4
20260905212553 71 117 1.0 9.0 0.67 0.67 0.67 91 1008.6
20260905212052 71 134 4.0 9.0 0.67 0.67 0.67 91 1009.4
20260905211605 71 188 3.0 6.0 0.67 0.67 0.67 90 1010.4
20260905211052 71 206 3.0 13.0 0.67 0.67 0.67 89 1010.8
20260905210551 71 341 2.0 26.0 0.64 0.64 0.64 88 1011.7
20260905210107 71 253 6.0 37.0 0.60 0.60 0.60 88 1012.3
20260905205556 72 235 13.0 37.0 0.54 0.54 0.54 87 1012.6
20260905205053 72 244 22.0 37.0 0.42 0.42 0.42 86 1012.3
20260905204609 75 327 14.0 57.0 0.28 0.28 0.28 84 1011.4
20260905204052 79 343 22.0 57.0 0.06 0.06 0.06 75 1011.0
20260905203552 91 323 13.0 25.0 0.00 0.00 0.00 57 1009.9
20260905203108 93 281 5.0 10.0 0.00 0.00 0.00 61 1008.7
20260905202554 93 246 3.0 9.0 0.00 0.00 0.00 61 1008.5
20260905202054 94 246 2.0 9.0 0.00 0.00 0.00 59 1008.4
20260905201616 94 237 4.0 10.0 0.00 0.00 0.00 59 1008.3
20260905201052 95 190 2.0 10.0 0.00 0.00 0.00 58 1008.3
20260905200552 95 258 3.0 8.0 0.00 0.00 0.00 57 1008.2
20260905200109 96 261 2.0 7.0 0.00 0.00 0.00 55 1008.3
20260905195553 96 82 1.0 7.0 0.00 0.00 0.00 55 1008.3
20260905195052 96 178 1.0 4.0 0.00 0.00 0.00 56 1008.5
20260905194604 96 207 0.0 5.0 0.00 0.00 0.00 56 1008.5
20260905194052 95 0 1.0 5.0 0.00 0.00 0.00 57 1008.7
20260905193552 95 0 1.0 9.0 0.00 0.00 0.00 55 1008.8
20260905193104 96 254 4.0 10.0 0.00 0.00 0.00 54 1008.8
20260905192553 96 261 4.0 12.0 0.00 0.00 0.00 53 1008.6
20260905192053 96 281 4.0 12.0 0.00 0.00 0.00 53 1008.5
20260905191619 97 225 4.0 12.0 0.00 0.00 0.00 51 1008.5
20260905191052 96 275 3.0 10.0 0.00 0.00 0.00 52 1008.6
20260905190553 96 322 5.0 9.0 0.00 0.00 0.00 52 1008.7
20260905190106 96 216 4.0 12.0 0.00 0.00 0.00 51 1008.8
20260905185552 96 254 5.0 12.0 0.00 0.00 0.00 54 1008.7
20260905185052 97 224 3.0 10.0 0.00 0.00 0.00 53 1008.9
20260905184612 96 210 4.0 10.0 0.00 0.00 0.00 53 1008.9
20260905184052 97 234 1.0 9.0 0.00 0.00 0.00 51 1009.1
20260905183626 96 324 3.0 8.0 0.00 0.00 0.00 52 1009.0
20260905183105 96 305 3.0 8.0 0.00 0.00 0.00 51 1009.2
20260905182553 96 240 3.0 12.0 0.00 0.00 0.00 54 1009.4
20260905182053 96 9 3.0 14.0 0.00 0.00 0.00 50 1009.5
20260905181608 95 232 6.0 14.0 0.00 0.00 0.00 54 1009.6
20260905181052 96 340 3.0 14.0 0.00 0.00 0.00 52 1009.6
20260905180554 96 255 1.0 7.0 0.00 0.00 0.00 51 1009.7
20260905180109 96 255 2.0 7.0 0.00 0.00 0.00 52 1009.8
20260905175552 95 182 2.0 12.0 0.00 0.00 0.00 55 1010.1
20260905175054 95 294 4.0 14.0 0.00 0.00 0.00 55 1010.1
20260905174603 95 281 6.0 14.0 0.00 0.00 0.00 54 1010.3
20260905174052 95 281 5.0 11.0 0.00 0.00 0.00 55 1010.3
20260905173552 94 270 7.0 11.0 0.00 0.00 0.00 56 1010.4
20260905173134 94 254 3.0 10.0 0.00 0.00 0.00 57 1010.6
20260905172553 94 251 4.0 10.0 0.00 0.00 0.00 58 1010.7
20260905172053 94 259 4.0 10.0 0.00 0.00 0.00 56 1010.7
20260905171604 94 298 5.0 10.0 0.00 0.00 0.00 58 1010.6
20260905171052 94 5 5.0 9.0 0.00 0.00 0.00 57 1010.7
20260905170552 94 261 1.0 8.0 0.00 0.00 0.00 57 1010.8
20260905170115 94 252 4.0 9.0 0.00 0.00 0.00 56 1010.8
20260905165552 93 192 5.0 9.0 0.00 0.00 0.00 56 1010.9
20260905165052 93 302 3.0 11.0 0.00 0.00 0.00 57 1011.0
20260905164611 93 302 5.0 11.0 0.00 0.00 0.00 57 1011.1
20260905164051 93 327 5.0 11.0 0.00 0.00 0.00 58 1011.1
20260905163552 93 308 4.0 9.0 0.00 0.00 0.00 60 1011.2
20260905163127 93 232 2.0 6.0 0.00 0.00 0.00 62 1011.3
20260905162553 92 91 2.0 7.0 0.00 0.00 0.00 63 1011.4
20260905162052 92 24 3.0 8.0 0.00 0.00 0.00 64 1011.5
20260905161616 91 329 3.0 9.0 0.00 0.00 0.00 63 1011.6
20260905161052 91 29 5.0 9.0 0.00 0.00 0.00 63 1011.6
20260905160552 91 351 2.0 8.0 0.00 0.00 0.00 66 1011.7
20260905160107 91 36 3.0 8.0 0.00 0.00 0.00 66 1011.8
20260905155552 90 286 4.0 8.0 0.00 0.00 0.00 66 1011.9
20260905155052 91 288 3.0 10.0 0.00 0.00 0.00 66 1012.0
20260905154616 90 0 3.0 11.0 0.00 0.00 0.00 67 1011.9
20260905154055 90 275 5.0 11.0 0.00 0.00 0.00 67 1012.0
20260905153552 90 250 5.0 11.0 0.00 0.00 0.00 68 1012.0
20260905153130 89 342 3.0 9.0 0.00 0.00 0.00 69 1012.0
20260905152553 89 319 3.0 9.0 0.00 0.00 0.00 69 1012.0
20260905152052 89 227 3.0 7.0 0.00 0.00 0.00 70 1012.0
20260905151605 89 17 4.0 8.0 0.00 0.00 0.00 70 1012.0
20260905151051 88 304 3.0 8.0 0.00 0.00 0.00 70 1012.0
20260905150552 88 269 1.0 8.0 0.00 0.00 0.00 71 1011.9
20260905150111 88 257 3.0 8.0 0.00 0.00 0.00 71 1011.9
20260905145554 88 249 4.0 9.0 0.00 0.00 0.00 72 1012.0
20260905145051 87 295 2.0 10.0 0.00 0.00 0.00 72 1011.9
20260905144605 87 273 4.0 10.0 0.00 0.00 0.00 73 1012.0
20260905144052 87 323 4.0 9.0 0.00 0.00 0.00 73 1012.1
20260905143552 86 246 2.0 10.0 0.00 0.00 0.00 74 1012.0
20260905143109 86 252 4.0 10.0 0.00 0.00 0.00 74 1012.0
20260905142555 86 289 3.0 7.0 0.00 0.00 0.00 75 1012.0
20260905142053 85 218 2.0 7.0 0.00 0.00 0.00 76 1012.0
20260905141606 85 21 2.0 11.0 0.00 0.00 0.00 76 1012.0
20260905141053 85 286 4.0 11.0 0.00 0.00 0.00 77 1012.0
20260905140553 84 256 4.0 10.0 0.00 0.00 0.00 78 1011.9
20260905140110 84 261 3.0 10.0 0.00 0.00 0.00 78 1012.1
20260905135552 84 293 4.0 10.0 0.00 0.00 0.00 78 1012.0
20260905135051 84 252 4.0 9.0 0.00 0.00 0.00 79 1012.1
20260905134605 83 263 3.0 10.0 0.00 0.00 0.00 80 1012.1
20260905134052 83 318 6.0 10.0 0.00 0.00 0.00 80 1012.1
20260905133552 83 301 5.0 10.0 0.00 0.00 0.00 80 1012.3
20260905133106 82 15 4.0 10.0 0.00 0.00 0.00 81 1012.2
20260905132552 82 258 5.0 10.0 0.00 0.00 0.00 81 1012.3
20260905132052 82 268 2.0 8.0 0.00 0.00 0.00 82 1012.3
20260905131604 82 240 3.0 8.0 0.00 0.00 0.00 82 1012.4
20260905131052 82 323 3.0 8.0 0.00 0.00 0.00 82 1012.3
20260905130553 81 240 3.0 10.0 0.00 0.00 0.00 83 1012.3
20260905130107 81 265 5.0 10.0 0.00 0.00 0.00 83 1012.4
20260905125552 81 281 5.0 9.0 0.00 0.00 0.00 83 1012.3
20260905125052 81 230 3.0 9.0 0.00 0.00 0.00 84 1012.5
20260905124605 80 242 3.0 9.0 0.00 0.00 0.00 85 1012.4
20260905124052 80 248 5.0 12.0 0.00 0.00 0.00 85 1012.4
20260905123552 80 279 3.0 12.0 0.00 0.00 0.00 85 1012.4
20260905123110 80 261 3.0 9.0 0.00 0.00 0.00 85 1012.5
20260905122552 79 242 4.0 12.0 0.00 0.00 0.00 86 1012.3
20260905122054 79 327 5.0 12.0 0.00 0.00 0.00 86 1012.4
20260905121606 79 252 3.0 11.0 0.00 0.00 0.00 87 1012.3
20260905121052 79 278 4.0 10.0 0.00 0.00 0.00 87 1012.3
20260905120552 78 306 2.0 8.0 0.00 0.00 0.00 87 1012.3
20260905120108 78 244 3.0 8.0 0.00 0.00 0.00 87 1012.3
20260905115552 78 223 2.0 9.0 0.00 0.00 0.00 88 1012.3
20260905115055 78 241 4.0 9.0 0.00 0.00 0.00 88 1012.2
20260905114605 78 360 3.0 8.0 0.00 0.00 0.00 88 1012.0
20260905114052 78 248 3.0 8.0 0.00 0.00 0.00 89 1012.1
20260905113552 78 0 2.0 10.0 0.00 0.00 0.00 89 1012.0
20260905113104 77 259 2.0 10.0 0.00 0.00 0.00 89 1012.0
20260905112553 77 281 3.0 9.0 0.00 0.00 0.00 89 1011.9
20260905112057 77 271 2.0 9.0 0.00 0.00 0.00 89 1011.9